Time,TemperatureF,DewpointF,PressureIn,WindDirection,WindDirectionDegrees,WindSpeedMPH,WindSpeedGustMPH,Humidity,HourlyPrecipIn,Conditions,Clouds,dailyrainin,SoftwareType,DateUTC
2013-03-02 00:00:00,36.4,25.0,29.90,West,264,2.0,8.0,63,0.00,,---,0.00,VWS V14.01,2013-03-02 05:00:00,
2013-03-02 00:05:00,36.3,24.9,29.90,West,271,0.0,2.0,63,0.00,,---,0.00,VWS V14.01,2013-03-02 05:05:00,
2013-03-02 00:10:00,36.3,24.9,29.90,WNW,284,2.0,5.0,63,0.00,,---,0.00,VWS V14.01,2013-03-02 05:10:00,
2013-03-02 00:15:00,36.2,24.8,29.90,NNW,328,1.0,5.0,63,0.00,,---,0.00,VWS V14.01,2013-03-02 05:15:00,
2013-03-02 00:20:00,36.1,24.7,29.90,WSW,249,0.0,5.0,63,0.00,,---,0.00,VWS V14.01,2013-03-02 05:20:00,
2013-03-02 00:25:00,36.0,24.3,29.90,NNW,338,1.0,5.0,62,0.00,,---,0.00,VWS V14.01,2013-03-02 05:25:00,
2013-03-02 00:30:00,35.9,24.2,29.90,NW,325,2.0,5.0,62,0.00,,---,0.00,VWS V14.01,2013-03-02 05:30:00,
2013-03-02 00:35:00,35.8,23.7,29.90,NNE,18,2.0,4.0,61,0.00,,---,0.00,VWS V14.01,2013-03-02 05:35:00,
2013-03-02 00:40:00,35.7,23.6,29.90,NNW,337,1.0,7.0,61,0.00,,---,0.00,VWS V14.01,2013-03-02 05:40:00,
2013-03-02 00:45:00,35.6,23.9,29.91,North,353,2.0,7.0,62,0.00,,---,0.00,VWS V14.01,2013-03-02 05:45:00,
2013-03-02 00:50:00,35.5,23.8,29.90,SW,229,1.0,7.0,62,0.00,,---,0.00,VWS V14.01,2013-03-02 05:50:00,
2013-03-02 00:55:00,35.4,23.7,29.90,NE,46,2.0,7.0,62,0.00,,---,0.00,VWS V14.01,2013-03-02 05:55:00,
2013-03-02 01:00:00,35.3,23.6,29.90,ENE,61,1.0,7.0,62,0.00,,---,0.00,VWS V14.01,2013-03-02 06:00:00,
2013-03-02 01:05:00,35.3,24.0,29.90,North,356,0.0,2.0,63,0.00,,---,0.00,VWS V14.01,2013-03-02 06:05:00,
2013-03-02 01:10:00,35.2,23.9,29.90,North,354,1.0,5.0,63,0.00,,---,0.00,VWS V14.01,2013-03-02 06:10:00,
2013-03-02 01:15:00,35.1,23.8,29.90,NW,309,2.0,5.0,63,0.00,,---,0.00,VWS V14.01,2013-03-02 06:15:00,
2013-03-02 01:20:00,35.0,23.7,29.90,NE,34,2.0,6.0,63,0.00,,---,0.00,VWS V14.01,2013-03-02 06:20:00,
2013-03-02 01:25:00,34.9,23.6,29.91,WNW,285,2.0,6.0,63,0.00,,---,0.00,VWS V14.01,2013-03-02 06:25:00,
2013-03-02 01:30:00,34.8,23.5,29.91,WSW,256,0.0,6.0,63,0.00,,---,0.00,VWS V14.01,2013-03-02 06:30:00,
2013-03-02 01:35:00,34.7,23.8,29.91,NW,312,2.0,3.0,64,0.00,,---,0.00,VWS V14.01,2013-03-02 06:35:00,
2013-03-02 01:40:00,34.7,23.8,29.91,SSW,208,1.0,3.0,64,0.00,,---,0.00,VWS V14.01,2013-03-02 06:40:00,
2013-03-02 01:45:00,34.6,23.7,29.91,WNW,287,4.0,5.0,64,0.00,,---,0.00,VWS V14.01,2013-03-02 06:45:00,
2013-03-02 01:50:00,34.5,23.6,29.91,WNW,287,1.0,5.0,64,0.00,,---,0.00,VWS V14.01,2013-03-02 06:50:00,
2013-03-02 01:55:00,34.4,23.5,29.91,SE,129,1.0,5.0,64,0.00,,---,0.00,VWS V14.01,2013-03-02 06:55:00,
2013-03-02 02:00:00,34.4,23.5,29.91,NNW,330,1.0,6.0,64,0.00,,---,0.00,VWS V14.01,2013-03-02 07:00:00,
2013-03-02 02:05:00,34.3,23.4,29.91,WNW,284,1.0,2.0,64,0.00,,---,0.00,VWS V14.01,2013-03-02 07:05:00,
2013-03-02 02:10:00,34.2,23.7,29.91,WNW,297,1.0,3.0,65,0.00,,---,0.00,VWS V14.01,2013-03-02 07:10:00,
2013-03-02 02:15:00,34.1,23.6,29.91,NW,316,0.0,3.0,65,0.00,,---,0.00,VWS V14.01,2013-03-02 07:15:00,
2013-03-02 02:20:00,34.0,23.5,29.91,WNW,288,2.0,9.0,65,0.00,,---,0.00,VWS V14.01,2013-03-02 07:20:00,
2013-03-02 02:25:00,33.9,23.4,29.91,WNW,284,0.0,9.0,65,0.00,,---,0.00,VWS V14.01,2013-03-02 07:25:00,
2013-03-02 02:30:00,33.8,23.3,29.90,NNW,329,1.0,9.0,65,0.00,,---,0.00,VWS V14.01,2013-03-02 07:30:00,
2013-03-02 02:35:00,33.7,23.2,29.90,NNE,16,1.0,5.0,65,0.00,,---,0.00,VWS V14.01,2013-03-02 07:35:00,
2013-03-02 02:40:00,33.5,23.4,29.90,NNW,328,2.0,5.0,66,0.00,,---,0.00,VWS V14.01,2013-03-02 07:40:00,
2013-03-02 02:45:00,33.4,23.3,29.89,WNW,301,2.0,5.0,66,0.00,,---,0.00,VWS V14.01,2013-03-02 07:45:00,
2013-03-02 02:50:00,33.2,23.1,29.89,North,353,2.0,5.0,66,0.00,,---,0.00,VWS V14.01,2013-03-02 07:50:00,
2013-03-02 02:55:00,33.1,23.4,29.89,NW,315,1.0,5.0,67,0.00,,---,0.00,VWS V14.01,2013-03-02 07:55:00,
2013-03-02 03:00:00,32.9,23.2,29.90,WNW,290,1.0,5.0,67,0.00,,---,0.00,VWS V14.01,2013-03-02 08:00:00,
2013-03-02 03:05:00,32.8,23.1,29.90,NW,316,1.0,2.0,67,0.00,,---,0.00,VWS V14.01,2013-03-02 08:05:00,
2013-03-02 03:10:00,32.7,23.3,29.90,SW,226,0.0,2.0,68,0.00,,---,0.00,VWS V14.01,2013-03-02 08:10:00,
2013-03-02 03:15:00,32.7,23.3,29.90,WNW,285,0.0,2.0,68,0.00,,---,0.00,VWS V14.01,2013-03-02 08:15:00,
2013-03-02 03:20:00,32.7,23.3,29.90,WNW,283,0.0,2.0,68,0.00,,---,0.00,VWS V14.01,2013-03-02 08:20:00,
2013-03-02 03:25:00,32.7,23.3,29.90,NNE,18,1.0,3.0,68,0.00,,---,0.00,VWS V14.01,2013-03-02 08:25:00,
2013-03-02 03:30:00,32.7,23.3,29.90,WNW,288,0.0,3.0,68,0.00,,---,0.00,VWS V14.01,2013-03-02 08:30:00,
2013-03-02 03:35:00,32.7,23.3,29.90,West,271,1.0,3.0,68,0.00,,---,0.00,VWS V14.01,2013-03-02 08:35:00,
2013-03-02 03:40:00,32.7,23.7,29.90,West,274,1.0,3.0,69,0.00,,---,0.00,VWS V14.01,2013-03-02 08:40:00,
2013-03-02 03:45:00,32.6,23.6,29.90,West,269,0.0,3.0,69,0.00,,---,0.00,VWS V14.01,2013-03-02 08:45:00,
2013-03-02 03:50:00,32.6,23.6,29.90,WNW,290,3.0,6.0,69,0.00,,---,0.00,VWS V14.01,2013-03-02 08:50:00,
2013-03-02 03:55:00,32.6,23.6,29.90,West,266,3.0,6.0,69,0.00,,---,0.00,VWS V14.01,2013-03-02 08:55:00,
2013-03-02 04:00:00,32.7,23.7,29.90,NW,314,0.0,6.0,69,0.00,,---,0.00,VWS V14.01,2013-03-02 09:00:00,
2013-03-02 04:05:00,32.7,23.7,29.90,West,262,1.0,2.0,69,0.00,,---,0.00,VWS V14.01,2013-03-02 09:05:00,
2013-03-02 04:10:00,32.6,23.6,29.90,North,1,2.0,4.0,69,0.00,,---,0.00,VWS V14.01,2013-03-02 09:10:00,
2013-03-02 04:15:00,32.6,23.6,29.90,WSW,258,0.0,4.0,69,0.00,,---,0.00,VWS V14.01,2013-03-02 09:15:00,
2013-03-02 04:20:00,32.5,23.5,29.90,SSW,205,0.0,4.0,69,0.00,,---,0.00,VWS V14.01,2013-03-02 09:20:00,
2013-03-02 04:25:00,32.4,23.4,29.90,WSW,257,2.0,4.0,69,0.00,,---,0.00,VWS V14.01,2013-03-02 09:25:00,
2013-03-02 04:30:00,32.4,23.4,29.90,ESE,109,1.0,4.0,69,0.00,,---,0.00,VWS V14.01,2013-03-02 09:30:00,
2013-03-02 04:35:00,32.3,23.6,29.90,West,274,0.0,3.0,70,0.00,,---,0.00,VWS V14.01,2013-03-02 09:35:00,
2013-03-02 04:40:00,32.2,23.5,29.90,NW,316,2.0,5.0,70,0.00,,---,0.00,VWS V14.01,2013-03-02 09:40:00,
2013-03-02 04:45:00,32.1,23.1,29.90,West,274,2.0,5.0,69,0.00,,---,0.00,VWS V14.01,2013-03-02 09:45:00,
2013-03-02 04:50:00,32.1,23.4,29.90,NW,309,0.0,5.0,70,0.00,,---,0.00,VWS V14.01,2013-03-02 09:50:00,
2013-03-02 04:55:00,32.0,23.3,29.90,WNW,288,0.0,5.0,70,0.00,,---,0.00,VWS V14.01,2013-03-02 09:55:00,
2013-03-02 05:00:00,31.8,23.1,29.90,WSW,255,0.0,5.0,70,0.00,,---,0.00,VWS V14.01,2013-03-02 10:00:00,
2013-03-02 05:05:00,31.8,23.1,29.90,WNW,291,1.0,3.0,70,0.00,,---,0.00,VWS V14.01,2013-03-02 10:05:00,
2013-03-02 05:10:00,31.7,23.0,29.90,SE,127,0.0,3.0,70,0.00,,---,0.00,VWS V14.01,2013-03-02 10:10:00,
2013-03-02 05:15:00,31.7,23.0,29.90,North,356,2.0,3.0,70,0.00,,---,0.00,VWS V14.01,2013-03-02 10:15:00,
2013-03-02 05:20:00,31.6,23.0,29.90,WNW,295,0.0,4.0,70,0.00,,---,0.00,VWS V14.01,2013-03-02 10:20:00,
2013-03-02 05:25:00,31.6,23.0,29.90,East,79,0.0,4.0,70,0.00,,---,0.00,VWS V14.01,2013-03-02 10:25:00,
2013-03-02 05:30:00,31.6,23.0,29.90,WSW,249,2.0,4.0,70,0.00,,---,0.00,VWS V14.01,2013-03-02 10:30:00,
2013-03-02 05:36:00,31.7,23.0,29.90,ENE,78,0.0,6.0,70,0.00,,---,0.00,VWS V14.01,2013-03-02 10:36:00,
2013-03-02 05:41:00,31.7,23.0,29.90,WNW,285,1.0,6.0,70,0.00,,---,0.00,VWS V14.01,2013-03-02 10:41:00,
2013-03-02 05:46:00,31.6,23.0,29.90,West,269,0.0,6.0,70,0.00,,---,0.00,VWS V14.01,2013-03-02 10:46:00,
2013-03-02 05:51:00,31.5,23.2,29.90,NE,48,1.0,6.0,71,0.00,,---,0.00,VWS V14.01,2013-03-02 10:51:00,
2013-03-02 05:56:00,31.5,22.9,29.90,WSW,255,1.0,6.0,70,0.00,,---,0.00,VWS V14.01,2013-03-02 10:56:00,
2013-03-02 06:01:00,31.4,23.1,29.90,North,6,1.0,6.0,71,0.00,,---,0.00,VWS V14.01,2013-03-02 11:01:00,
2013-03-02 06:06:00,31.3,23.0,29.90,WSW,242,1.0,2.0,71,0.00,,---,0.00,VWS V14.01,2013-03-02 11:06:00,
2013-03-02 06:11:00,31.3,23.0,29.90,NW,307,1.0,3.0,71,0.00,,---,0.00,VWS V14.01,2013-03-02 11:11:00,
2013-03-02 06:16:00,31.2,22.9,29.91,West,274,0.0,3.0,71,0.00,,---,0.00,VWS V14.01,2013-03-02 11:16:00,
2013-03-02 06:21:00,31.0,23.0,29.91,NW,316,0.0,3.0,72,0.00,,---,0.00,VWS V14.01,2013-03-02 11:21:00,
2013-03-02 06:26:00,31.0,22.7,29.91,West,267,1.0,3.0,71,0.00,,---,0.00,VWS V14.01,2013-03-02 11:26:00,
2013-03-02 06:31:00,31.0,22.7,29.91,West,278,0.0,6.0,71,0.00,,---,0.00,VWS V14.01,2013-03-02 11:31:00,
2013-03-02 06:36:00,31.0,22.7,29.91,WSW,239,0.0,0.0,71,0.00,,---,0.00,VWS V14.01,2013-03-02 11:36:00,
2013-03-02 06:41:00,31.0,22.7,29.91,West,278,0.0,3.0,71,0.00,,---,0.00,VWS V14.01,2013-03-02 11:41:00,
2013-03-02 06:46:00,30.9,23.0,29.91,WNW,286,1.0,3.0,72,0.00,,---,0.00,VWS V14.01,2013-03-02 11:46:00,
2013-03-02 06:51:00,30.9,22.6,29.91,SW,231,0.0,3.0,71,0.00,,---,0.00,VWS V14.01,2013-03-02 11:51:00,
2013-03-02 06:56:00,30.9,23.0,29.91,WSW,255,0.0,3.0,72,0.00,,---,0.00,VWS V14.01,2013-03-02 11:56:00,
2013-03-02 07:01:00,30.9,22.6,29.92,NE,50,0.0,8.0,71,0.00,,---,0.00,VWS V14.01,2013-03-02 12:01:00,
2013-03-02 07:06:00,31.0,22.7,29.92,NW,310,0.0,3.0,71,0.00,,---,0.00,VWS V14.01,2013-03-02 12:06:00,
2013-03-02 07:11:00,31.1,22.8,29.91,NNW,338,2.0,7.0,71,0.00,,---,0.00,VWS V14.01,2013-03-02 12:11:00,
2013-03-02 07:16:00,31.3,23.0,29.92,West,273,1.0,7.0,71,0.00,,---,0.00,VWS V14.01,2013-03-02 12:16:00,
2013-03-02 07:21:00,31.3,22.7,29.91,WNW,295,0.0,7.0,70,0.00,,---,0.00,VWS V14.01,2013-03-02 12:21:00,
2013-03-02 07:26:00,31.3,23.0,29.91,NW,315,1.0,7.0,71,0.00,,---,0.00,VWS V14.01,2013-03-02 12:26:00,
2013-03-02 07:31:00,31.3,22.7,29.91,WSW,254,3.0,7.0,70,0.00,,---,0.00,VWS V14.01,2013-03-02 12:31:00,
2013-03-02 07:36:00,31.3,22.7,29.91,East,82,0.0,3.0,70,0.00,,---,0.00,VWS V14.01,2013-03-02 12:36:00,
2013-03-02 07:41:00,31.4,22.8,29.91,NW,316,0.0,3.0,70,0.00,,---,0.00,VWS V14.01,2013-03-02 12:41:00,
2013-03-02 07:46:00,31.5,22.9,29.91,WNW,290,2.0,4.0,70,0.00,,---,0.00,VWS V14.01,2013-03-02 12:46:00,
2013-03-02 07:51:00,32.0,23.0,29.91,WNW,284,1.0,5.0,69,0.00,,---,0.00,VWS V14.01,2013-03-02 12:51:00,
2013-03-02 07:56:00,32.5,23.1,29.91,WNW,290,0.0,5.0,68,0.00,,---,0.00,VWS V14.01,2013-03-02 12:56:00,
2013-03-02 08:01:00,33.1,23.7,29.91,ENE,75,2.0,5.0,68,0.00,,---,0.00,VWS V14.01,2013-03-02 13:01:00,
2013-03-02 08:06:00,33.5,23.4,29.91,WNW,302,2.0,9.0,66,0.00,,---,0.00,VWS V14.01,2013-03-02 13:06:00,
2013-03-02 08:11:00,34.2,23.7,29.92,NNW,348,2.0,9.0,65,0.00,,---,0.00,VWS V14.01,2013-03-02 13:11:00,
2013-03-02 08:16:00,34.4,23.1,29.92,ENE,65,0.0,9.0,63,0.00,,---,0.00,VWS V14.01,2013-03-02 13:16:00,
2013-03-02 08:21:00,34.5,23.6,29.92,WNW,293,3.0,9.0,64,0.00,,---,0.00,VWS V14.01,2013-03-02 13:21:00,
2013-03-02 08:26:00,34.6,23.3,29.92,East,98,2.0,9.0,63,0.00,,---,0.00,VWS V14.01,2013-03-02 13:26:00,
2013-03-02 08:31:00,34.6,23.3,29.92,NW,319,1.0,9.0,63,0.00,,---,0.00,VWS V14.01,2013-03-02 13:31:00,
2013-03-02 08:36:00,34.7,23.0,29.92,WNW,300,2.0,10.0,62,0.00,,---,0.00,VWS V14.01,2013-03-02 13:36:00,
2013-03-02 08:41:00,34.5,23.2,29.92,ENE,63,1.0,10.0,63,0.00,,---,0.00,VWS V14.01,2013-03-02 13:41:00,
2013-03-02 08:46:00,34.4,23.5,29.92,West,262,3.0,10.0,64,0.00,,---,0.00,VWS V14.01,2013-03-02 13:46:00,
2013-03-02 08:51:00,34.5,23.6,29.92,WNW,295,1.0,10.0,64,0.00,,---,0.00,VWS V14.01,2013-03-02 13:51:00,
2013-03-02 08:56:00,34.4,23.1,29.92,WSW,256,3.0,10.0,63,0.00,,---,0.00,VWS V14.01,2013-03-02 13:56:00,
2013-03-02 09:01:00,34.3,23.4,29.92,NNW,340,2.0,11.0,64,0.00,,---,0.00,VWS V14.01,2013-03-02 14:01:00,
2013-03-02 09:06:00,34.3,23.0,29.92,WNW,291,7.0,7.0,63,0.00,,---,0.00,VWS V14.01,2013-03-02 14:06:00,
2013-03-02 09:11:00,34.0,22.4,29.92,North,358,1.0,7.0,62,0.00,,---,0.00,VWS V14.01,2013-03-02 14:11:00,
2013-03-02 09:16:00,33.9,22.6,29.92,North,6,6.0,8.0,63,0.00,,---,0.00,VWS V14.01,2013-03-02 14:16:00,
2013-03-02 09:21:00,33.8,22.9,29.92,WNW,286,2.0,8.0,64,0.00,,---,0.00,VWS V14.01,2013-03-02 14:21:00,
2013-03-02 09:26:00,33.9,22.6,29.92,West,263,5.0,8.0,63,0.00,,---,0.00,VWS V14.01,2013-03-02 14:26:00,
2013-03-02 09:31:00,33.6,22.4,29.92,NNW,329,2.0,8.0,63,0.00,,---,0.00,VWS V14.01,2013-03-02 14:31:00,
2013-03-02 09:36:00,33.5,22.6,29.92,NNW,339,1.0,4.0,64,0.00,,---,0.00,VWS V14.01,2013-03-02 14:36:00,
2013-03-02 09:41:00,33.5,22.6,29.92,NNW,343,1.0,5.0,64,0.00,,---,0.00,VWS V14.01,2013-03-02 14:41:00,
2013-03-02 09:46:00,33.5,22.6,29.92,SSW,211,2.0,8.0,64,0.00,,---,0.00,VWS V14.01,2013-03-02 14:46:00,
2013-03-02 09:51:00,33.5,22.6,29.92,WNW,293,1.0,8.0,64,0.00,,---,0.00,VWS V14.01,2013-03-02 14:51:00,
2013-03-02 09:56:00,33.6,22.7,29.92,WNW,285,3.0,8.0,64,0.00,,---,0.00,VWS V14.01,2013-03-02 14:56:00,
2013-03-02 10:01:00,33.6,22.4,29.92,West,266,1.0,8.0,63,0.00,,---,0.00,VWS V14.01,2013-03-02 15:01:00,
2013-03-02 10:06:00,33.6,22.4,29.92,WNW,287,2.0,6.0,63,0.00,,---,0.00,VWS V14.01,2013-03-02 15:06:00,
2013-03-02 10:11:00,33.9,22.6,29.92,NW,314,4.0,6.0,63,0.00,,---,0.00,VWS V14.01,2013-03-02 15:11:00,
2013-03-02 10:16:00,34.2,22.5,29.92,NW,313,4.0,6.0,62,0.00,,---,0.00,VWS V14.01,2013-03-02 15:16:00,
2013-03-02 10:21:00,34.3,22.3,29.92,West,278,3.0,6.0,61,0.00,,---,0.00,VWS V14.01,2013-03-02 15:21:00,
2013-03-02 10:26:00,34.5,22.5,29.92,West,280,2.0,6.0,61,0.00,,---,0.00,VWS V14.01,2013-03-02 15:26:00,
2013-03-02 10:31:00,34.5,22.5,29.92,SW,228,0.0,6.0,61,0.00,,---,0.00,VWS V14.01,2013-03-02 15:31:00,
2013-03-02 10:36:00,34.4,22.4,29.92,East,82,2.0,4.0,61,0.00,,---,0.00,VWS V14.01,2013-03-02 15:36:00,
2013-03-02 10:41:00,34.4,22.4,29.92,SW,235,2.0,6.0,61,0.00,,---,0.00,VWS V14.01,2013-03-02 15:41:00,
2013-03-02 10:46:00,34.4,22.0,29.92,NW,309,2.0,6.0,60,0.00,,---,0.00,VWS V14.01,2013-03-02 15:46:00,
2013-03-02 10:51:00,34.4,22.0,29.92,NW,310,1.0,6.0,60,0.00,,---,0.00,VWS V14.01,2013-03-02 15:51:00,
2013-03-02 10:56:00,34.5,21.7,29.92,SSW,201,2.0,6.0,59,0.00,,---,0.00,VWS V14.01,2013-03-02 15:56:00,
2013-03-02 11:01:00,34.5,22.1,29.91,NNW,329,1.0,6.0,60,0.00,,---,0.00,VWS V14.01,2013-03-02 16:01:00,
2013-03-02 11:06:00,34.4,22.0,29.91,SW,219,0.0,5.0,60,0.00,,---,0.00,VWS V14.01,2013-03-02 16:06:00,
2013-03-02 11:11:00,34.3,22.3,29.91,WSW,245,2.0,5.0,61,0.00,,---,0.00,VWS V14.01,2013-03-02 16:11:00,
2013-03-02 11:16:00,34.2,21.8,29.91,West,266,2.0,5.0,60,0.00,,---,0.00,VWS V14.01,2013-03-02 16:16:00,
2013-03-02 11:21:00,34.3,22.3,29.91,West,271,1.0,5.0,61,0.00,,---,0.00,VWS V14.01,2013-03-02 16:21:00,
2013-03-02 11:26:00,34.5,22.1,29.91,WNW,298,4.0,5.0,60,0.00,,---,0.00,VWS V14.01,2013-03-02 16:26:00,
2013-03-02 11:31:00,34.4,22.0,29.91,WNW,302,6.0,7.0,60,0.00,,---,0.00,VWS V14.01,2013-03-02 16:31:00,
2013-03-02 11:36:00,34.3,22.3,29.91,NW,322,1.0,3.0,61,0.00,,---,0.00,VWS V14.01,2013-03-02 16:36:00,
2013-03-02 11:41:00,34.4,22.0,29.91,SSE,162,0.0,3.0,60,0.00,,---,0.00,VWS V14.01,2013-03-02 16:41:00,
2013-03-02 11:46:00,34.5,21.7,29.91,ENE,70,3.0,6.0,59,0.00,,---,0.00,VWS V14.01,2013-03-02 16:46:00,
2013-03-02 11:51:00,34.5,21.3,29.90,SW,228,1.0,6.0,58,0.00,,---,0.00,VWS V14.01,2013-03-02 16:51:00,
2013-03-02 11:56:00,34.5,21.3,29.90,NNE,32,2.0,6.0,58,0.00,,---,0.00,VWS V14.01,2013-03-02 16:56:00,
2013-03-02 12:01:00,34.4,20.8,29.90,NW,309,1.0,8.0,57,0.00,,---,0.00,VWS V14.01,2013-03-02 17:01:00,
2013-03-02 12:06:00,34.5,21.3,29.90,North,357,4.0,4.0,58,0.00,,---,0.00,VWS V14.01,2013-03-02 17:06:00,
2013-03-02 12:11:00,34.7,21.5,29.89,NE,41,2.0,5.0,58,0.00,,---,0.00,VWS V14.01,2013-03-02 17:11:00,
2013-03-02 12:16:00,34.9,21.2,29.89,WSW,238,0.0,5.0,57,0.00,,---,0.00,VWS V14.01,2013-03-02 17:16:00,
2013-03-02 12:21:00,34.8,20.7,29.89,WSW,243,1.0,7.0,56,0.00,,---,0.00,VWS V14.01,2013-03-02 17:21:00,
2013-03-02 12:26:00,34.9,21.2,29.88,SSW,211,2.0,7.0,57,0.00,,---,0.00,VWS V14.01,2013-03-02 17:26:00,
2013-03-02 12:31:00,35.0,20.9,29.88,ENE,74,2.0,7.0,56,0.00,,---,0.00,VWS V14.01,2013-03-02 17:31:00,
2013-03-02 12:36:00,35.1,21.4,29.88,WNW,300,1.0,6.0,57,0.00,,---,0.00,VWS V14.01,2013-03-02 17:36:00,
2013-03-02 12:41:00,35.3,21.2,29.88,North,351,4.0,6.0,56,0.00,,---,0.00,VWS V14.01,2013-03-02 17:41:00,
2013-03-02 12:46:00,35.5,21.0,29.88,West,259,1.0,6.0,55,0.00,,---,0.00,VWS V14.01,2013-03-02 17:46:00,
2013-03-02 12:51:00,35.7,21.6,29.88,SW,233,0.0,6.0,56,0.00,,---,0.00,VWS V14.01,2013-03-02 17:51:00,
2013-03-02 12:56:00,36.1,21.5,29.87,West,275,2.0,6.0,55,0.00,,---,0.00,VWS V14.01,2013-03-02 17:56:00,
2013-03-02 13:01:00,36.0,21.4,29.87,WNW,302,1.0,7.0,55,0.00,,---,0.00,VWS V14.01,2013-03-02 18:01:00,
2013-03-02 13:06:00,35.8,21.2,29.87,SSW,205,4.0,7.0,55,0.00,,---,0.00,VWS V14.01,2013-03-02 18:06:00,
2013-03-02 13:11:00,36.0,21.8,29.87,West,278,2.0,7.0,56,0.00,,---,0.00,VWS V14.01,2013-03-02 18:11:00,
2013-03-02 13:16:00,36.1,21.9,29.86,WSW,242,1.0,7.0,56,0.00,,---,0.00,VWS V14.01,2013-03-02 18:16:00,
2013-03-02 13:21:00,36.1,21.9,29.86,West,276,4.0,8.0,56,0.00,,---,0.00,VWS V14.01,2013-03-02 18:21:00,
2013-03-02 13:26:00,35.8,21.2,29.86,WNW,285,3.0,9.0,55,0.00,,---,0.00,VWS V14.01,2013-03-02 18:26:00,
2013-03-02 13:31:00,35.7,21.6,29.86,WNW,284,1.0,9.0,56,0.00,,---,0.00,VWS V14.01,2013-03-02 18:31:00,
2013-03-02 13:36:00,35.7,21.6,29.86,NNE,25,1.0,7.0,56,0.00,,---,0.00,VWS V14.01,2013-03-02 18:36:00,
2013-03-02 13:41:00,35.8,22.1,29.86,West,259,1.0,7.0,57,0.00,,---,0.00,VWS V14.01,2013-03-02 18:41:00,
2013-03-02 13:46:00,36.2,22.5,29.86,NE,46,2.0,7.0,57,0.00,,---,0.00,VWS V14.01,2013-03-02 18:46:00,
2013-03-02 13:51:00,36.3,22.1,29.86,West,280,0.0,7.0,56,0.00,,---,0.00,VWS V14.01,2013-03-02 18:51:00,
2013-03-02 13:56:00,36.2,22.0,29.85,WNW,291,0.0,7.0,56,0.00,,---,0.00,VWS V14.01,2013-03-02 18:56:00,
2013-03-02 14:01:00,36.4,22.2,29.85,WSW,256,5.0,9.0,56,0.00,,---,0.00,VWS V14.01,2013-03-02 19:01:00,
2013-03-02 14:06:00,36.4,22.2,29.85,SW,228,3.0,7.0,56,0.00,,---,0.00,VWS V14.01,2013-03-02 19:06:00,
2013-03-02 14:11:00,36.8,22.6,29.85,NW,311,1.0,8.0,56,0.00,,---,0.00,VWS V14.01,2013-03-02 19:11:00,
2013-03-02 14:16:00,37.2,23.0,29.85,NNW,346,1.0,8.0,56,0.00,,---,0.00,VWS V14.01,2013-03-02 19:16:00,
2013-03-02 14:21:00,37.7,22.6,29.85,West,259,4.0,8.0,54,0.00,,---,0.00,VWS V14.01,2013-03-02 19:21:00,
2013-03-02 14:26:00,37.7,22.1,29.85,WNW,291,1.0,9.0,53,0.00,,---,0.00,VWS V14.01,2013-03-02 19:26:00,
2013-03-02 14:31:00,37.1,21.6,29.85,NNW,340,7.0,9.0,53,0.00,,---,0.00,VWS V14.01,2013-03-02 19:31:00,
2013-03-02 14:36:00,37.0,22.4,29.85,WSW,239,3.0,5.0,55,0.00,,---,0.00,VWS V14.01,2013-03-02 19:36:00,
2013-03-02 14:41:00,37.2,22.5,29.85,East,79,1.0,5.0,55,0.00,,---,0.00,VWS V14.01,2013-03-02 19:41:00,
2013-03-02 14:46:00,37.3,22.2,29.85,South,188,0.0,7.0,54,0.00,,---,0.00,VWS V14.01,2013-03-02 19:46:00,
2013-03-02 14:51:00,37.2,22.1,29.85,NNE,29,2.0,7.0,54,0.00,,---,0.00,VWS V14.01,2013-03-02 19:51:00,
2013-03-02 14:56:00,36.9,21.8,29.85,NE,44,1.0,7.0,54,0.00,,---,0.00,VWS V14.01,2013-03-02 19:56:00,
2013-03-02 15:01:00,36.7,21.6,29.85,WNW,302,1.0,7.0,54,0.00,,---,0.00,VWS V14.01,2013-03-02 20:01:00,
2013-03-02 15:06:00,36.5,21.5,29.86,NNW,331,2.0,7.0,54,0.00,,---,0.00,VWS V14.01,2013-03-02 20:06:00,
2013-03-02 15:11:00,36.3,22.1,29.85,SSE,162,1.0,8.0,56,0.00,,---,0.00,VWS V14.01,2013-03-02 20:11:00,
2013-03-02 15:16:00,36.5,22.3,29.85,West,277,1.0,8.0,56,0.00,,---,0.00,VWS V14.01,2013-03-02 20:16:00,
2013-03-02 15:21:00,36.7,21.6,29.85,NNW,333,3.0,8.0,54,0.00,,---,0.00,VWS V14.01,2013-03-02 20:21:00,
2013-03-02 15:26:00,36.6,21.5,29.85,NW,310,2.0,8.0,54,0.00,,---,0.00,VWS V14.01,2013-03-02 20:26:00,
2013-03-02 15:31:00,36.8,21.3,29.85,NW,309,1.0,8.0,53,0.00,,---,0.00,VWS V14.01,2013-03-02 20:31:00,
2013-03-02 15:36:00,36.8,21.3,29.85,NW,325,0.0,7.0,53,0.00,,---,0.00,VWS V14.01,2013-03-02 20:36:00,
2013-03-02 15:41:00,36.9,20.9,29.85,NW,315,0.0,7.0,52,0.00,,---,0.00,VWS V14.01,2013-03-02 20:41:00,
2013-03-02 15:46:00,36.9,20.9,29.85,North,1,4.0,7.0,52,0.00,,---,0.00,VWS V14.01,2013-03-02 20:46:00,
2013-03-02 15:51:00,36.9,21.4,29.85,ESE,105,0.0,7.0,53,0.00,,---,0.00,VWS V14.01,2013-03-02 20:51:00,
2013-03-02 15:56:00,37.1,21.6,29.85,WSW,239,1.0,7.0,53,0.00,,---,0.00,VWS V14.01,2013-03-02 20:56:00,
2013-03-02 16:01:00,37.4,21.4,29.85,WSW,257,2.0,10.0,52,0.00,,---,0.00,VWS V14.01,2013-03-02 21:01:00,
2013-03-02 16:06:00,37.3,21.8,29.85,WSW,243,1.0,6.0,53,0.00,,---,0.00,VWS V14.01,2013-03-02 21:06:00,
2013-03-02 16:11:00,37.2,21.7,29.85,NW,310,2.0,6.0,53,0.00,,---,0.00,VWS V14.01,2013-03-02 21:11:00,
2013-03-02 16:16:00,36.8,21.7,29.85,West,277,2.0,6.0,54,0.00,,---,0.00,VWS V14.01,2013-03-02 21:16:00,
2013-03-02 16:21:00,36.6,22.0,29.85,West,271,2.0,6.0,55,0.00,,---,0.00,VWS V14.01,2013-03-02 21:21:00,
2013-03-02 16:26:00,36.3,22.1,29.85,NNW,329,3.0,6.0,56,0.00,,---,0.00,VWS V14.01,2013-03-02 21:26:00,
2013-03-02 16:31:00,36.2,22.5,29.85,NW,310,2.0,6.0,57,0.00,,---,0.00,VWS V14.01,2013-03-02 21:31:00,
2013-03-02 16:36:00,36.1,22.4,29.85,NNW,342,4.0,4.0,57,0.00,,---,0.00,VWS V14.01,2013-03-02 21:36:00,
2013-03-02 16:40:00,36.1,22.8,29.85,WNW,290,2.0,4.0,58,0.00,,---,0.00,VWS V14.01,2013-03-02 21:40:00,
2013-03-02 16:45:00,36.1,22.4,29.85,ENE,61,1.0,4.0,57,0.00,,---,0.00,VWS V14.01,2013-03-02 21:45:00,
2013-03-02 16:51:00,36.0,21.8,29.86,North,4,0.0,7.0,56,0.00,,---,0.00,VWS V14.01,2013-03-02 21:51:00,
2013-03-02 16:56:00,35.9,22.6,29.86,WNW,302,0.0,7.0,58,0.00,,---,0.00,VWS V14.01,2013-03-02 21:56:00,
2013-03-02 17:01:00,35.8,22.5,29.86,SSW,198,2.0,8.0,58,0.00,,---,0.00,VWS V14.01,2013-03-02 22:01:00,
2013-03-02 17:06:00,35.7,22.0,29.86,WNW,291,1.0,4.0,57,0.00,,---,0.00,VWS V14.01,2013-03-02 22:06:00,
2013-03-02 17:10:00,35.5,22.2,29.86,WNW,297,3.0,8.0,58,0.00,,---,0.00,VWS V14.01,2013-03-02 22:10:00,
2013-03-02 17:15:00,35.4,22.5,29.86,SSW,205,2.0,8.0,59,0.00,,---,0.00,VWS V14.01,2013-03-02 22:15:00,
2013-03-02 17:20:00,35.3,22.4,29.86,North,352,4.0,8.0,59,0.00,,---,0.00,VWS V14.01,2013-03-02 22:20:00,
2013-03-02 17:25:00,35.3,23.2,29.86,North,358,1.0,8.0,61,0.00,,---,0.00,VWS V14.01,2013-03-02 22:25:00,
2013-03-02 17:30:00,35.1,23.0,29.86,NW,316,1.0,8.0,61,0.00,,---,0.00,VWS V14.01,2013-03-02 22:30:00,
2013-03-02 17:36:00,35.0,23.3,29.86,WNW,294,2.0,6.0,62,0.00,,---,0.00,VWS V14.01,2013-03-02 22:36:00,
2013-03-02 17:41:00,34.9,23.2,29.87,WSW,246,2.0,6.0,62,0.00,,---,0.00,VWS V14.01,2013-03-02 22:41:00,
2013-03-02 17:46:00,34.8,23.5,29.87,SE,125,1.0,6.0,63,0.00,,---,0.00,VWS V14.01,2013-03-02 22:46:00,
2013-03-02 17:51:00,34.6,23.7,29.87,WNW,291,2.0,6.0,64,0.00,,---,0.00,VWS V14.01,2013-03-02 22:51:00,
2013-03-02 17:56:00,34.4,23.5,29.87,West,267,2.0,6.0,64,0.00,,---,0.00,VWS V14.01,2013-03-02 22:56:00,
2013-03-02 18:01:00,34.3,23.4,29.87,East,82,0.0,6.0,64,0.00,,---,0.00,VWS V14.01,2013-03-02 23:01:00,
2013-03-02 18:06:00,34.1,23.6,29.88,WSW,239,3.0,5.0,65,0.00,,---,0.00,VWS V14.01,2013-03-02 23:06:00,
2013-03-02 18:11:00,34.0,23.5,29.87,NE,36,1.0,5.0,65,0.00,,---,0.00,VWS V14.01,2013-03-02 23:11:00,
2013-03-02 18:16:00,34.0,23.5,29.88,North,354,2.0,5.0,65,0.00,,---,0.00,VWS V14.01,2013-03-02 23:16:00,
2013-03-02 18:21:00,33.8,23.7,29.88,West,280,0.0,5.0,66,0.00,,---,0.00,VWS V14.01,2013-03-02 23:21:00,
2013-03-02 18:25:00,33.7,23.2,29.88,WNW,292,2.0,5.0,65,0.00,,---,0.00,VWS V14.01,2013-03-02 23:25:00,
2013-03-02 18:30:00,33.7,22.8,29.88,WNW,298,1.0,7.0,64,0.00,,---,0.00,VWS V14.01,2013-03-02 23:30:00,
2013-03-02 18:35:00,33.6,22.7,29.88,NW,318,1.0,4.0,64,0.00,,---,0.00,VWS V14.01,2013-03-02 23:35:00,
2013-03-02 18:40:00,33.5,22.6,29.88,West,274,1.0,6.0,64,0.00,,---,0.00,VWS V14.01,2013-03-02 23:40:00,
2013-03-02 18:45:00,33.3,22.5,29.88,WNW,300,0.0,6.0,64,0.00,,---,0.00,VWS V14.01,2013-03-02 23:45:00,
2013-03-02 18:50:00,33.2,22.7,29.88,SE,141,1.0,6.0,65,0.00,,---,0.00,VWS V14.01,2013-03-02 23:50:00,
2013-03-02 18:55:00,33.2,22.7,29.88,West,278,0.0,6.0,65,0.00,,---,0.00,VWS V14.01,2013-03-02 23:55:00,
2013-03-02 19:01:00,33.0,22.5,29.88,SW,224,0.0,6.0,65,0.00,,---,0.00,VWS V14.01,2013-03-03 00:01:00,
2013-03-02 19:06:00,32.9,22.4,29.88,WSW,239,1.0,9.0,65,0.00,,---,0.00,VWS V14.01,2013-03-03 00:06:00,
2013-03-02 19:11:00,32.8,22.3,29.88,NE,47,1.0,9.0,65,0.00,,---,0.00,VWS V14.01,2013-03-03 00:11:00,
2013-03-02 19:16:00,32.8,22.0,29.88,WNW,283,2.0,9.0,64,0.00,,---,0.00,VWS V14.01,2013-03-03 00:16:00,
2013-03-02 19:21:00,32.8,22.0,29.88,West,264,1.0,9.0,64,0.00,,---,0.00,VWS V14.01,2013-03-03 00:21:00,
2013-03-02 19:26:00,32.8,22.0,29.88,West,278,2.0,9.0,64,0.00,,---,0.00,VWS V14.01,2013-03-03 00:26:00,
2013-03-02 19:31:00,32.7,21.9,29.88,West,281,0.0,9.0,64,0.00,,---,0.00,VWS V14.01,2013-03-03 00:31:00,
2013-03-02 19:35:00,32.6,21.8,29.88,SW,236,1.0,4.0,64,0.00,,---,0.00,VWS V14.01,2013-03-03 00:35:00,
2013-03-02 19:40:00,32.6,22.1,29.88,NW,304,1.0,6.0,65,0.00,,---,0.00,VWS V14.01,2013-03-03 00:40:00,
2013-03-02 19:45:00,32.5,22.1,29.88,West,264,0.0,6.0,65,0.00,,---,0.00,VWS V14.01,2013-03-03 00:45:00,
2013-03-02 19:50:00,32.4,21.6,29.88,West,281,1.0,10.0,64,0.00,,---,0.00,VWS V14.01,2013-03-03 00:50:00,
2013-03-02 19:55:00,32.4,21.6,29.88,West,270,2.0,10.0,64,0.00,,---,0.00,VWS V14.01,2013-03-03 00:55:00,
2013-03-02 20:00:00,32.3,21.5,29.88,SSW,212,1.0,10.0,64,0.00,,---,0.00,VWS V14.01,2013-03-03 01:00:00,
2013-03-02 20:05:00,32.3,21.1,29.88,WSW,257,1.0,5.0,63,0.00,,---,0.00,VWS V14.01,2013-03-03 01:05:00,
2013-03-02 20:10:00,32.1,21.3,29.88,West,280,1.0,6.0,64,0.00,,---,0.00,VWS V14.01,2013-03-03 01:10:00,
2013-03-02 20:15:00,32.0,21.2,29.88,WSW,253,1.0,8.0,64,0.00,,---,0.00,VWS V14.01,2013-03-03 01:15:00,
2013-03-02 20:20:00,31.9,20.8,29.88,NNW,333,0.0,8.0,63,0.00,,---,0.00,VWS V14.01,2013-03-03 01:20:00,
2013-03-02 20:25:00,31.8,20.7,29.88,NW,313,1.0,8.0,63,0.00,,---,0.00,VWS V14.01,2013-03-03 01:25:00,
2013-03-02 20:30:00,31.8,20.7,29.89,NE,37,3.0,8.0,63,0.00,,---,0.00,VWS V14.01,2013-03-03 01:30:00,
2013-03-02 20:35:00,31.8,20.7,29.89,SW,232,1.0,5.0,63,0.00,,---,0.00,VWS V14.01,2013-03-03 01:35:00,
2013-03-02 20:40:00,31.7,20.9,29.89,WSW,238,0.0,5.0,64,0.00,,---,0.00,VWS V14.01,2013-03-03 01:40:00,
2013-03-02 20:45:00,31.6,20.5,29.89,West,263,1.0,7.0,63,0.00,,---,0.00,VWS V14.01,2013-03-03 01:45:00,
2013-03-02 20:50:00,31.6,20.8,29.89,NW,321,2.0,8.0,64,0.00,,---,0.00,VWS V14.01,2013-03-03 01:50:00,
2013-03-02 20:55:00,31.5,20.7,29.89,NE,37,1.0,8.0,64,0.00,,---,0.00,VWS V14.01,2013-03-03 01:55:00,
2013-03-02 21:00:00,31.5,20.7,29.89,West,281,0.0,8.0,64,0.00,,---,0.00,VWS V14.01,2013-03-03 02:00:00,
2013-03-02 21:05:00,31.4,21.0,29.89,SW,215,1.0,6.0,65,0.00,,---,0.00,VWS V14.01,2013-03-03 02:05:00,
2013-03-02 21:10:00,31.3,20.9,29.89,WNW,293,4.0,6.0,65,0.00,,---,0.00,VWS V14.01,2013-03-03 02:10:00,
2013-03-02 21:15:00,31.2,20.8,29.89,West,274,2.0,6.0,65,0.00,,---,0.00,VWS V14.01,2013-03-03 02:15:00,
2013-03-02 21:20:00,31.1,20.7,29.89,NW,306,0.0,6.0,65,0.00,,---,0.00,VWS V14.01,2013-03-03 02:20:00,
2013-03-02 21:25:00,31.0,21.0,29.89,NNE,22,0.0,6.0,66,0.00,,---,0.00,VWS V14.01,2013-03-03 02:25:00,
2013-03-02 21:30:00,30.9,20.9,29.90,NW,306,1.0,6.0,66,0.00,,---,0.00,VWS V14.01,2013-03-03 02:30:00,
2013-03-02 21:35:00,30.9,20.9,29.89,WNW,287,0.0,3.0,66,0.00,,---,0.00,VWS V14.01,2013-03-03 02:35:00,
2013-03-02 21:40:00,30.9,20.9,29.90,ENE,65,0.0,5.0,66,0.00,,---,0.00,VWS V14.01,2013-03-03 02:40:00,
2013-03-02 21:45:00,30.8,20.8,29.90,NW,320,0.0,5.0,66,0.00,,---,0.00,VWS V14.01,2013-03-03 02:45:00,
2013-03-02 21:50:00,30.7,20.7,29.89,WNW,287,2.0,5.0,66,0.00,,---,0.00,VWS V14.01,2013-03-03 02:50:00,
2013-03-02 21:55:00,30.7,20.7,29.90,WSW,249,0.0,6.0,66,0.00,,---,0.00,VWS V14.01,2013-03-03 02:55:00,
2013-03-02 22:00:00,30.6,21.0,29.90,NW,309,1.0,6.0,67,0.00,,---,0.00,VWS V14.01,2013-03-03 03:00:00,
2013-03-02 22:05:00,30.5,20.5,29.90,WNW,287,2.0,3.0,66,0.00,,---,0.00,VWS V14.01,2013-03-03 03:05:00,
2013-03-02 22:10:00,30.5,20.5,29.90,WNW,301,1.0,3.0,66,0.00,,---,0.00,VWS V14.01,2013-03-03 03:10:00,
2013-03-02 22:15:00,30.6,20.6,29.90,West,278,1.0,4.0,66,0.00,,---,0.00,VWS V14.01,2013-03-03 03:15:00,
2013-03-02 22:20:00,30.6,20.6,29.90,West,281,1.0,4.0,66,0.00,,---,0.00,VWS V14.01,2013-03-03 03:20:00,
2013-03-02 22:25:00,30.5,20.5,29.90,WSW,250,0.0,4.0,66,0.00,,---,0.00,VWS V14.01,2013-03-03 03:25:00,
2013-03-02 22:30:00,30.4,20.8,29.89,WSW,255,0.0,4.0,67,0.00,,---,0.00,VWS V14.01,2013-03-03 03:30:00,
2013-03-02 22:35:00,30.2,20.6,29.89,NW,321,1.0,3.0,67,0.00,,---,0.00,VWS V14.01,2013-03-03 03:35:00,
2013-03-02 22:40:00,30.3,20.7,29.89,NW,316,0.0,6.0,67,0.00,,---,0.00,VWS V14.01,2013-03-03 03:40:00,
2013-03-02 22:45:00,30.2,20.6,29.89,WNW,284,3.0,6.0,67,0.00,,---,0.00,VWS V14.01,2013-03-03 03:45:00,
2013-03-02 22:50:00,30.2,20.6,29.89,WNW,285,0.0,6.0,67,0.00,,---,0.00,VWS V14.01,2013-03-03 03:50:00,
2013-03-02 22:55:00,30.1,20.5,29.89,WSW,239,1.0,6.0,67,0.00,,---,0.00,VWS V14.01,2013-03-03 03:55:00,
2013-03-02 23:00:00,30.1,20.5,29.89,NW,321,1.0,6.0,67,0.00,,---,0.00,VWS V14.01,2013-03-03 04:00:00,
2013-03-02 23:05:00,30.0,20.4,29.89,West,259,2.0,3.0,67,0.00,,---,0.00,VWS V14.01,2013-03-03 04:05:00,
2013-03-02 23:10:00,30.0,20.7,29.89,WSW,249,1.0,3.0,68,0.00,,---,0.00,VWS V14.01,2013-03-03 04:10:00,
2013-03-02 23:15:00,29.9,20.6,29.89,NW,309,2.0,3.0,68,0.00,,---,0.00,VWS V14.01,2013-03-03 04:15:00,
2013-03-02 23:20:00,30.0,20.7,29.89,NW,315,0.0,3.0,68,0.00,,---,0.00,VWS V14.01,2013-03-03 04:20:00,
2013-03-02 23:25:00,30.0,20.4,29.89,West,263,2.0,4.0,67,0.00,,---,0.00,VWS V14.01,2013-03-03 04:25:00,
2013-03-02 23:30:00,30.1,20.5,29.89,NNW,341,2.0,6.0,67,0.00,,---,0.00,VWS V14.01,2013-03-03 04:30:00,
2013-03-02 23:35:00,30.1,20.5,29.89,SW,227,1.0,6.0,67,0.00,,---,0.00,VWS V14.01,2013-03-03 04:35:00,
2013-03-02 23:40:00,30.2,20.6,29.89,WSW,239,1.0,6.0,67,0.00,,---,0.00,VWS V14.01,2013-03-03 04:40:00,
2013-03-02 23:45:00,30.3,20.7,29.89,SSW,207,1.0,6.0,67,0.00,,---,0.00,VWS V14.01,2013-03-03 04:45:00,
2013-03-02 23:50:00,30.3,20.7,29.88,West,269,1.0,6.0,67,0.00,,---,0.00,VWS V14.01,2013-03-03 04:50:00,
2013-03-02 23:55:00,30.3,21.0,29.88,ESE,117,0.0,6.0,68,0.00,,---,0.00,VWS V14.01,2013-03-03 04:55:00,